www.pogodaiklimat.ru

Погода и климат >> Архив погоды >> Кука Острова >> Penrhyn


ПОГОДА в Penrhyn

  • Прогноз погоды в Penrhyn
  • Монитор погоды в Penrhyn
  • Климат города

АРХИВ ПОГОДЫ в Penrhyn

Время (UTC), дата Ветер
(напр.,м/с)
 
Видим.   Явления Облачность Т
(С)
Тd
(С)
f
(%)
Тe
(С)
Тes
(С)
Комфортность P
(гПа)
Po
(гПа)
Тmin
(С)
Tmax
(С)
R
(мм)
R24
(мм)
S
(см)
00 13.10 СВ 5 н/о н/о +32.0 +24.5 65 +45 +45 опасность
перегрева
1007.0 1007.0 +25.8
03 13.10 СВ 5 н/о н/о +30.4 +23.3 66 +41 +41 опасность
перегрева
1007.2 1007.0
06 13.10 СВ 5 н/о н/о +27.5 +22.8 76 +37 +37 очень
душно
1009.5 1010.0
09 13.10 СВ 5 н/о н/о +26.9 +22.5 77 +35 +35 очень
душно
1010.2 1010.0
12 13.10 СВ 5 н/о н/о +26.3 +21.9 77 +34 +34 очень
душно
1008.5 1009.0 +32.2
15 13.10 СВ 3 н/о н/о +26.1 +21.4 75 +33 +33 очень
душно
1008.5 1009.0
18 13.10 СВ 4 н/о н/о +28.8 +22.8 70 +38 +38 очень
душно
1010.7 1011.0
21 13.10 В 3 н/о н/о +30.7 +23.1 64 +41 +41 опасность
перегрева
1010.2 1010.0
00 14.10 В 3 н/о н/о +31.0 +23.3 64 +42 +42 опасность
перегрева
1008.1 1008.0 +25.9
03 14.10 В 3 н/о н/о +30.7 +24.4 69 +43 +43 опасность
перегрева
1008.0 1008.0
06 14.10 В 2 н/о н/о +27.6 +23.9 80 +38 +38 очень
душно
1009.2 1009.0
09 14.10 В 2 н/о н/о +27.6 +24.3 82 +39 +39 очень
душно
1010.2 1010.0
12 14.10 В 2 н/о н/о +27.0 +23.3 80 +36 +36 очень
душно
1008.8 1009.0 +31.6
15 14.10 В 2 н/о н/о +27.0 +23.7 82 +37 +37 очень
душно
1008.4 1008.0
18 14.10 В 1 н/о н/о +28.9 +23.4 72 +39 +39 очень
душно
1010.3 1010.0
21 14.10 В 3 н/о н/о +29.7 +23.8 71 +41 +41 опасность
перегрева
1009.5 1010.0
00 15.10 В 3 н/о н/о +29.7 +24.4 73 +42 +42 опасность
перегрева
1006.7 1007.0 +26.9
03 15.10 В 3 н/о н/о +29.1 +24.5 76 +41 +41 опасность
перегрева
1005.6 1006.0
06 15.10 В 3 н/о н/о +27.2 +25.2 89 +39 +39 очень
душно
1007.3 1007.0 3
09 15.10 В 4 н/о н/о +26.7 +24.5 88 +38 +38 очень
душно
1008.4 1008.0
12 15.10 В 2 н/о н/о +27.0 +24.9 88 +39 +39 очень
душно
1006.6 1007.0 +30.8 0.4
15 15.10 В 3 н/о н/о +27.1 +24.0 83 +37 +37 очень
душно
1006.6 1007.0
18 15.10 В 2 н/о н/о +29.2 +24.9 78 +42 +42 опасность
перегрева
1008.3 1008.0
21 15.10 В 3 н/о н/о +31.3 +25.4 71 +46 +46 опасность
перегрева
1008.4 1008.0
00 16.10 В 5 н/о н/о +28.9 +26.4 86 +44 +44 опасность
перегрева
1006.1 1006.0 +26.3
03 16.10 В 3 н/о н/о +29.3 +25.5 80 +43 +43 опасность
перегрева
1005.6 1006.0
06 16.10 В 2 н/о н/о +26.6 +24.9 90 +38 +38 очень
душно
1007.3 1007.0 2
09 16.10 СВ 4 н/о н/о +26.4 +25.7 96 +39 +39 очень
душно
1008.3 1008.0
12 16.10 СВ 2 н/о н/о +26.4 +25.1 93 +38 +38 очень
душно
1006.4 1006.0 +32.4 3
15 16.10 В 3 н/о н/о +27.0 +24.4 86 +38 +38 очень
душно
1006.0 1006.0
18 16.10 В 3 н/о н/о +27.9 +24.4 81 +39 +39 очень
душно
1008.5 1009.0
21 16.10 СВ 6 н/о н/о +31.6 +25.3 69 +46 +46 опасность
перегрева
1008.7 1009.0
00 17.10 СВ 5 н/о н/о +31.3 +24.5 67 +44 +44 опасность
перегрева
1006.2 1006.0 +25.6
03 17.10 В 4 н/о н/о +30.1 +24.4 72 +42 +42 опасность
перегрева
1006.3 1006.0
06 17.10 В 4 н/о н/о +27.6 +24.4 83 +39 +39 очень
душно
1008.4 1008.0
09 17.10 В 4 н/о н/о +27.3 +23.3 79 +37 +37 очень
душно
1009.3 1009.0
12 17.10 В 2 н/о н/о +27.0 +23.1 79 +36 +36 очень
душно
1007.8 1008.0 +32.3
15 17.10 В 2 н/о н/о +27.1 +23.9 83 +37 +37 очень
душно
1007.4 1007.0
18 17.10 В 2 н/о н/о +28.4 +24.0 77 +39 +39 очень
душно
1009.6 1010.0 0.2
21 17.10 СВ 6 н/о н/о +31.3 +24.4 67 +44 +44 опасность
перегрева
1009.6 1010.0
00 18.10 СВ 5 н/о н/о +32.2 +24.5 64 +45 +45 опасность
перегрева
1007.3 1007.0 +26.2
03 18.10 В 4 н/о н/о +30.3 +24.0 69 +42 +42 опасность
перегрева
1006.7 1007.0
06 18.10 В 4 н/о н/о +27.6 +23.6 79 +38 +38 очень
душно
1008.7 1009.0
09 18.10 СВ 4 н/о н/о +27.0 +22.4 76 +35 +35 очень
душно
1009.4 1009.0
12 18.10 В 3 н/о н/о +26.7 +21.7 74 +34 +34 очень
душно
1008.3 1008.0 +33.1
15 18.10 СВ 4 н/о н/о +26.9 +23.0 79 +36 +36 очень
душно
1009.0 1009.0
18 18.10 В 5 н/о н/о +29.2 +22.5 67 +38 +38 очень
душно
1011.7 1012.0
21 18.10 В 4 н/о н/о +31.0 +23.9 66 +43 +43 опасность
перегрева
1011.1 1011.0
00 19.10 В 4 н/о н/о +31.6 +24.5 66 +44 +44 опасность
перегрева
1008.1 1008.0 +26.6
03 19.10 В 4 н/о н/о +30.2 +24.5 72 +43 +43 опасность
перегрева
1007.4 1007.0
06 19.10 В 4 н/о н/о +28.0 +24.2 80 +39 +39 очень
душно
1009.7 1010.0
09 19.10 В 5 н/о н/о +27.7 +23.6 78 +38 +38 очень
душно
1010.7 1011.0
12 19.10 В 5 н/о н/о +27.5 +23.3 78 +37 +37 очень
душно
1009.6 1010.0 +31.9
15 19.10 В 4 н/о н/о +27.5 +23.5 79 +37 +37 очень
душно
1010.5 1011.0

 

Местоположение метеостанции Penrhyn (Кука Острова): широта -9.03 долгота -158.00 высота над уровнем моря 1 м.

В архиве по умолчанию представлена погода в Penrhyn за последнюю неделю. Архивные данные за месяц целиком и за предыдущие месяцы, начиная с января 2011 года, Вы можете получить, выбрав интересующий диапазон дат из раскрывающегося списка и нажав кнопку "Ввод!".

Внимание! Время в таблицах - всемирное. Для получения местного времени необходимо прибавить поправку, которая в Penrhyn равна -10 ч.

Смотрите также архив погоды в соседних городах и на ближайших метеорологических станциях:

Погода в Manihiki (Кука Острова) (366 км)
Погода в Bora-Bora Airport (Французская Полинезия) (1070 км)
Погода в Aitutaki (Кука Острова) (1105 км)
Погода в Christmas (Кирибати) (1226 км)
Погода в Tahiti-Faaa (Французская Полинезия) (1313 км)
Погода в Rarotonga (Кука Острова) (1367 км)
Погода в Takaroa (Французская Полинезия) (1539 км)
Погода в Lufi-Lufi (Самоа) (1573 км)
Погода в Le Mafa (Самоа) (1580 км)
Погода в Apia (Американское Самоа) (1584 км)

Пояснения к столбцам:

Ветер - указаны скорость ветра в м/с - средняя за 10 мин, порывы в срок и между сроками (в фигурных скобках) и направление, откуда дует ветер: С - северный, СВ - северо-восточный, В - восточный, ЮВ - юго-восточный, Ю - южный, ЮЗ - юго-западный, З - западный, СЗ - северо-западный.
Видимость - горизонтальная дальность видимости в метрах или километрах. При видимости от 1 до 10 км при отсутствии осадков обычно наблюдается дымка, при ухудшении видимости до 1 км и менее - туман. В сухую погоду видимость может ухудшаться дымом, пылью или мглою.
Явления - указаны атмосферные явления, наблюдавшиеся в срок или в последний час перед сроком; фигурными скобками обозначены явления, наблюдавшиеся между сроками (за 1-3 часа до срока); квадратными скобками обозначены град или гололедные отложения с указанием их диаметра в мм.
Облачность - указаны через наклонную черту общая и нижняя облачность в баллах и высота нижней границы облаков в метрах; квадратными скобками обозначены формы облаков: Ci - перистые, Cs - перисто-слоистые, Cc - перисто-кучевые, Ac - высококучевые, As - высокослоистые, Sc - слоисто-кучевые, Ns - слоисто-дождевые, Cu - кучевые, Cb - кучево-дождевые. Подробнее классификацию облаков см. в Атласе облаков (PDF).
T - Температура воздуха - температура, измеренная на высоте 2 м над землей.
Td - Температура точки росы - температура, при понижении до которой содержащийся в воздухе водяной пар достигнет насыщения.
f - Относительная влажность воздуха - влажноcть воздуха, измеренная на высоте 2 м над землей.
Te - Эффективная температура - температура, которую ощущает одетый по сезону человек в тени. Характеристика душности погоды. При расчете учитывается влияние влажности воздуха и скорости ветра на теплоощущения человека.
Tes - Эффективная температура на солнце - температура, которую ощущает человек, с поправкой на солнечный нагрев. Характеристика знойности погоды. Зависит от высоты солнца над горизонтом, облачности и скорости ветра. Ночью, в пасмурную погоду, а также при ветре 12 м/с и более поправка равна нулю.
P - Атмосферное давление - приведенное к уровню моря атмосферное давление.
Po - Атмосферное давление - измеренное на уровне метеостанции атмосферное давление.
Tmin - Минимальная температура - минимум температуры воздуха на высоте 2 м над землей.
Tmax - Максимальная температура - максимум температуры воздуха на высоте 2 м над землей.
R - Количество осадков - Количество выпавших осадков за период времени, мм. При наведении курсора мыши на число - период времени, за который выпало указанное количество осадков.
R24 - Количество осадков - Количество выпавших осадков за 24 часа, мм.
S - Снежный покров - Высота снежного покрова, см. При наведении курсора мыши на число - состояние снежного покрова и степень покрытия местности в баллах.